Back to catalog

STARLINK-32313

AliveCommunicationsVLEO
NORAD 61527·PAYLOAD·🇺🇸 United States

Launched Oct 15, 2024 from Cape Canaveral Space Force Station

Loading…

Next Passes (next 24 hours)

TLE

FreshSource: CelesTrak SupGP

Epoch: Sep 14, 2026, 22:17 UTC

1 61527C 24183U   26257.92895833 -.00155460  00000+0 -45908-2 0  2575
2 61527  53.1590 341.5559 0001159  88.6293 225.9605 15.34484071    17

Track STARLINK-32313 in real time with AllMySat

Download on the App Store